Voltar ao catálogo

SL-12 R/B(2)

AtivoGEO
NORAD 20696·ROCKET BODY·🇷🇺 Russia

Lançado Jul 18, 1990 de Baikonur Cosmodrome

Loading…

TLE

AtualizadoSource: Space-Track

Época: Sep 14, 2026, 14:20 UTC

1 20696U 90061D   26257.59754778 -.00000372  00000-0  00000+0 0  9995
2 20696  12.5503 335.7358 0033486 223.0519 122.5749  1.00218096131294

Acompanhe SL-12 R/B(2) em tempo real com AllMySat

Download on the App Store